Regional Weather Roundup
Issued by NWS

Home | Current Version | Previous Version | Graphics & Text | Print | Product List | Glossary On
Versions: 1 2 3 4 5 6 7 8 9 10 11 12 13 14 15 16 17 18 19 20 21 22 23 24 25 26 27 28 29 30 31 32 33 34 35 36 37 38 39 40 41 42 43 44 45 46 47 48 49 50
000
ASUS43 KLMK 310702
RWRKY
KENTUCKY REGIONAL WEATHER ROUNDUP
NATIONAL WEATHER SERVICE LOUISVILLE KY
300 AM EDT THU JUL 31 2014

NOTE "FAIR" INDICATES FEW OR NO CLOUDS BELOW 12,000 FEET
WITH NO SIGNIFICANT WEATHER AND/OR OBSTRUCTIONS TO VISIBILITY.

KYZ001>023-026-027-061>063-070>075-310800-
WESTERN AND SOUTH CENTRAL KENTUCKY

CITY           SKY/WX    TMP DP  RH WIND       PRES   REMARKS
PADUCAH        PTCLDY    62  59  90 SE3       30.07S
HENDERSON      PTCLDY    57  54  88 CALM      30.08S
OWENSBORO      PTCLDY    62  59  90 CALM      30.09S
HOPKINSVILLE   MOCLDY    60  58  91 CALM      30.09S
BOWLING GREEN  PTCLDY    63  58  83 SE3       30.10S
GLASGOW        PTCLDY    60  60  99 CALM      30.10S
$$

KYZ024-025-028>034-038-045-046-053-310800-
NORTH CENTRAL KENTUCKY

CITY           SKY/WX    TMP DP  RH WIND       PRES   REMARKS
LOUISVILLE/SDF MOCLDY    69  60  73 SW3       30.08R
LOUISVILLE/LOU PTCLDY    65  60  84 CALM      30.09R
FORT KNOX      MOCLDY    62  60  94 CALM      30.08S
$$

KYZ035>037-039>044-047>052-055>060-089>105-310800-
NORTHEAST KENTUCKY

CITY           SKY/WX    TMP DP  RH WIND       PRES   REMARKS
LEXINGTON      PTCLDY    62  57  83 S3        30.10S
COVINGTON      CLOUDY    66  61  84 CALM      30.07S
FRANKFORT      CLEAR     59  57  93 CALM      30.08S
$$

KYZ054-064>069-076>088-106>120-310800-
SOUTHEAST KENTUCKY

CITY           SKY/WX    TMP DP  RH WIND       PRES   REMARKS
JACKSON        PTCLDY    61  58  90 E3        30.12S
LONDON         PTCLDY    61  58  90 CALM      30.12S
SOMERSET       PTCLDY    59  59 100 CALM      30.12S
MIDDLESBORO    MOCLDY    58  57  97 CALM      30.14S
MONTICELLO     MOSUNNY   59  59 100 CALM      30.13R FOG
$$




USA.gov is the U.S. government's official web portal to all federal, state and local government web resources and services.